Time,TemperatureF,DewpointF,PressureIn,WindDirection,WindDirectionDegrees,WindSpeedMPH,WindSpeedGustMPH,Humidity,HourlyPrecipIn,Conditions,Clouds,dailyrainin,SoftwareType,DateUTC
2013-12-03 00:05:00,49.3,49.0,29.87,North,355,0.0,0.0,99,0.00,,,0.00,Wunderground v.1.15,2013-12-03 05:05:00,
2013-12-03 00:09:00,49.4,49.1,29.87,North,355,0.0,0.0,99,0.00,,,0.00,Wunderground v.1.15,2013-12-03 05:09:00,
2013-12-03 00:15:00,49.4,49.1,29.87,North,355,0.0,0.0,99,0.00,,,0.00,Wunderground v.1.15,2013-12-03 05:15:00,
2013-12-03 00:20:00,49.4,49.1,29.87,North,355,0.0,0.0,99,0.24,,,0.02,Wunderground v.1.15,2013-12-03 05:20:00,
2013-12-03 00:25:00,49.3,49.0,29.87,North,355,0.0,0.0,99,0.15,,,0.03,Wunderground v.1.15,2013-12-03 05:25:00,
2013-12-03 00:30:00,49.2,48.9,29.87,North,355,0.0,0.0,99,0.16,,,0.05,Wunderground v.1.15,2013-12-03 05:30:00,
2013-12-03 00:40:00,49.2,48.9,29.87,North,355,0.0,0.0,99,0.10,,,0.08,Wunderground v.1.15,2013-12-03 05:40:00,
2013-12-03 00:50:00,49.2,48.9,29.86,North,355,0.0,0.0,99,0.07,,,0.09,Wunderground v.1.15,2013-12-03 05:50:00,
2013-12-03 00:59:00,49.2,48.9,29.86,North,355,0.0,0.0,99,0.05,,,0.09,Wunderground v.1.15,2013-12-03 05:59:00,
2013-12-03 01:09:00,49.3,49.0,29.86,North,355,0.0,0.0,99,0.00,,,0.09,Wunderground v.1.15,2013-12-03 06:09:00,
2013-12-03 01:19:00,49.4,49.1,29.86,North,355,0.0,0.0,99,0.00,,,0.09,Wunderground v.1.15,2013-12-03 06:19:00,
2013-12-03 01:24:00,49.4,49.1,29.86,North,355,0.0,0.0,99,0.00,,,0.09,Wunderground v.1.15,2013-12-03 06:24:00,
2013-12-03 01:29:00,49.4,49.1,29.86,North,355,0.0,0.0,99,0.00,,,0.09,Wunderground v.1.15,2013-12-03 06:29:00,
2013-12-03 01:35:00,49.4,49.1,29.86,North,355,0.0,0.0,99,0.00,,,0.10,Wunderground v.1.15,2013-12-03 06:35:00,
2013-12-03 01:40:00,49.4,49.1,29.86,North,355,0.0,0.0,99,0.00,,,0.10,Wunderground v.1.15,2013-12-03 06:40:00,
2013-12-03 01:50:00,49.4,49.1,29.86,North,355,0.0,0.0,99,0.00,,,0.10,Wunderground v.1.15,2013-12-03 06:50:00,
2013-12-03 02:00:00,49.4,49.1,29.86,North,355,0.0,0.0,99,0.00,,,0.10,Wunderground v.1.15,2013-12-03 07:00:00,
2013-12-03 02:10:00,49.5,49.2,29.86,North,355,0.0,0.0,99,0.00,,,0.11,Wunderground v.1.15,2013-12-03 07:10:00,
2013-12-03 02:19:00,49.5,49.2,29.86,North,355,0.0,0.0,99,0.15,,,0.14,Wunderground v.1.15,2013-12-03 07:19:00,
2013-12-03 02:25:00,49.5,49.2,29.86,North,355,0.0,0.0,99,0.10,,,0.14,Wunderground v.1.15,2013-12-03 07:25:00,
2013-12-03 02:30:00,49.4,49.1,29.86,North,355,0.0,0.0,99,0.05,,,0.14,Wunderground v.1.15,2013-12-03 07:30:00,
2013-12-03 02:40:00,49.2,48.9,29.86,North,355,0.0,0.0,99,0.00,,,0.14,Wunderground v.1.15,2013-12-03 07:40:00,
2013-12-03 02:50:00,49.2,48.9,29.85,North,355,0.0,0.0,99,0.00,,,0.15,Wunderground v.1.15,2013-12-03 07:50:00,
2013-12-03 02:59:00,49.2,48.9,29.85,North,355,0.0,0.0,99,0.00,,,0.15,Wunderground v.1.15,2013-12-03 07:59:00,
2013-12-03 03:09:00,49.2,48.9,29.85,North,355,0.0,0.0,99,0.00,,,0.15,Wunderground v.1.15,2013-12-03 08:09:00,
2013-12-03 03:19:00,49.3,49.0,29.85,North,355,0.0,0.0,99,0.00,,,0.16,Wunderground v.1.15,2013-12-03 08:19:00,
2013-12-03 03:29:00,49.4,49.1,29.85,North,355,0.0,0.0,99,0.00,,,0.16,Wunderground v.1.15,2013-12-03 08:29:00,
2013-12-03 03:35:00,49.3,49.0,29.85,North,355,0.0,0.0,99,0.00,,,0.16,Wunderground v.1.15,2013-12-03 08:35:00,
2013-12-03 03:45:00,49.3,49.0,29.85,North,355,0.0,0.0,99,0.00,,,0.16,Wunderground v.1.15,2013-12-03 08:45:00,
2013-12-03 03:50:00,49.4,49.1,29.85,North,355,0.0,0.0,99,0.00,,,0.17,Wunderground v.1.15,2013-12-03 08:50:00,
2013-12-03 04:00:00,49.4,49.1,29.85,North,355,0.0,0.0,99,0.00,,,0.17,Wunderground v.1.15,2013-12-03 09:00:00,
2013-12-03 04:10:00,49.4,49.1,29.85,North,355,0.0,0.0,99,0.00,,,0.17,Wunderground v.1.15,2013-12-03 09:10:00,
2013-12-03 04:19:00,49.4,49.1,29.85,North,355,0.0,0.0,99,0.00,,,0.17,Wunderground v.1.15,2013-12-03 09:19:00,
2013-12-03 04:29:00,49.3,49.0,29.85,North,355,0.0,0.0,99,0.00,,,0.17,Wunderground v.1.15,2013-12-03 09:29:00,
2013-12-03 04:35:00,49.4,49.1,29.85,North,355,0.0,0.0,99,0.00,,,0.17,Wunderground v.1.15,2013-12-03 09:35:00,
2013-12-03 04:40:00,49.4,49.1,29.85,North,355,0.0,0.0,99,0.00,,,0.17,Wunderground v.1.15,2013-12-03 09:40:00,
2013-12-03 04:50:00,49.3,49.0,29.85,North,355,0.0,0.0,99,0.00,,,0.17,Wunderground v.1.15,2013-12-03 09:50:00,
2013-12-03 05:00:00,49.4,49.1,29.85,North,355,0.0,0.0,99,0.00,,,0.17,Wunderground v.1.15,2013-12-03 10:00:00,
2013-12-03 05:09:00,49.3,49.0,29.85,North,355,0.0,0.0,99,0.00,,,0.17,Wunderground v.1.15,2013-12-03 10:09:00,
2013-12-03 05:19:00,49.3,49.0,29.85,North,355,0.0,0.0,99,0.00,,,0.17,Wunderground v.1.15,2013-12-03 10:19:00,
2013-12-03 05:29:00,49.3,49.0,29.85,North,355,0.0,0.0,99,0.00,,,0.17,Wunderground v.1.15,2013-12-03 10:29:00,
2013-12-03 05:39:00,49.2,48.9,29.85,North,355,0.0,0.0,99,0.00,,,0.17,Wunderground v.1.15,2013-12-03 10:39:00,
2013-12-03 05:45:00,49.2,48.9,29.85,North,355,0.0,0.0,99,0.00,,,0.17,Wunderground v.1.15,2013-12-03 10:45:00,
2013-12-03 05:50:00,49.2,48.9,29.85,North,355,0.0,0.0,99,0.00,,,0.17,Wunderground v.1.15,2013-12-03 10:50:00,
2013-12-03 06:00:00,49.3,49.0,29.85,North,355,0.0,0.0,99,0.00,,,0.17,Wunderground v.1.15,2013-12-03 11:00:00,
2013-12-03 06:10:00,49.3,49.0,29.85,North,355,0.0,0.0,99,0.00,,,0.17,Wunderground v.1.15,2013-12-03 11:10:00,
2013-12-03 06:19:00,49.2,48.9,29.85,North,355,0.0,0.0,99,0.00,,,0.17,Wunderground v.1.15,2013-12-03 11:19:00,
2013-12-03 06:29:00,49.3,49.0,29.85,North,355,0.0,0.0,99,0.00,,,0.17,Wunderground v.1.15,2013-12-03 11:29:00,
2013-12-03 06:35:00,49.2,48.9,29.85,North,355,0.0,0.0,99,0.00,,,0.17,Wunderground v.1.15,2013-12-03 11:35:00,
2013-12-03 06:40:00,49.2,48.9,29.85,North,355,0.0,0.0,99,0.00,,,0.17,Wunderground v.1.15,2013-12-03 11:40:00,
2013-12-03 06:45:00,49.3,49.0,29.85,North,355,0.0,0.0,99,0.00,,,0.17,Wunderground v.1.15,2013-12-03 11:45:00,
2013-12-03 06:54:00,49.4,49.1,29.86,North,355,0.0,0.0,99,0.00,,,0.18,Wunderground v.1.15,2013-12-03 11:54:00,
2013-12-03 06:59:00,49.5,49.2,29.86,North,355,0.0,0.0,99,0.00,,,0.18,Wunderground v.1.15,2013-12-03 11:59:00,
2013-12-03 07:05:00,49.5,49.2,29.86,North,355,0.0,0.0,99,0.00,,,0.18,Wunderground v.1.15,2013-12-03 12:05:00,
2013-12-03 07:10:00,49.6,49.3,29.86,North,355,0.0,0.0,99,0.00,,,0.18,Wunderground v.1.15,2013-12-03 12:10:00,
2013-12-03 07:20:00,49.6,49.3,29.86,North,355,0.0,0.0,99,0.00,,,0.18,Wunderground v.1.15,2013-12-03 12:20:00,
2013-12-03 07:30:00,49.4,49.1,29.86,North,355,0.0,0.0,99,0.00,,,0.18,Wunderground v.1.15,2013-12-03 12:30:00,
2013-12-03 07:40:00,49.5,49.2,29.86,North,355,0.0,0.0,99,0.00,,,0.18,Wunderground v.1.15,2013-12-03 12:40:00,
2013-12-03 07:49:00,49.6,49.3,29.86,North,355,0.0,0.0,99,0.00,,,0.18,Wunderground v.1.15,2013-12-03 12:49:00,
2013-12-03 07:59:00,49.7,49.4,29.86,North,355,0.0,0.0,99,0.00,,,0.18,Wunderground v.1.15,2013-12-03 12:59:00,
2013-12-03 08:09:00,49.9,49.6,29.86,North,355,0.0,0.0,99,0.00,,,0.18,Wunderground v.1.15,2013-12-03 13:09:00,
2013-12-03 08:15:00,50.0,49.7,29.86,North,355,0.0,0.0,99,0.00,,,0.18,Wunderground v.1.15,2013-12-03 13:15:00,
2013-12-03 08:20:00,50.1,49.8,29.87,North,355,0.0,0.0,99,0.00,,,0.18,Wunderground v.1.15,2013-12-03 13:20:00,
2013-12-03 08:30:00,50.3,50.0,29.87,North,355,0.0,0.0,99,0.00,,,0.18,Wunderground v.1.15,2013-12-03 13:30:00,
2013-12-03 08:40:00,50.5,50.5,29.87,North,355,0.0,0.0,100,0.00,,,0.18,Wunderground v.1.15,2013-12-03 13:40:00,
2013-12-03 08:49:00,50.7,50.7,29.87,North,355,0.0,0.0,100,0.00,,,0.18,Wunderground v.1.15,2013-12-03 13:49:00,
2013-12-03 08:55:00,50.8,50.5,29.87,North,355,0.0,0.0,99,0.00,,,0.18,Wunderground v.1.15,2013-12-03 13:55:00,
2013-12-03 09:00:00,50.8,50.5,29.87,North,355,0.0,0.0,99,0.00,,,0.18,Wunderground v.1.15,2013-12-03 14:00:00,
2013-12-03 09:10:00,51.0,50.7,29.88,North,355,0.0,0.0,99,0.00,,,0.18,Wunderground v.1.15,2013-12-03 14:10:00,
2013-12-03 09:20:00,51.1,51.1,29.88,North,355,0.0,0.0,100,0.00,,,0.18,Wunderground v.1.15,2013-12-03 14:20:00,
2013-12-03 09:29:00,51.3,51.3,29.88,North,355,0.0,0.0,100,0.00,,,0.18,Wunderground v.1.15,2013-12-03 14:29:00,
2013-12-03 09:39:00,51.3,51.3,29.89,North,355,0.0,0.0,100,0.00,,,0.18,Wunderground v.1.15,2013-12-03 14:39:00,
2013-12-03 09:50:00,51.4,51.1,29.89,North,355,0.0,0.0,99,0.00,,,0.18,Wunderground v.1.15,2013-12-03 14:50:00,
2013-12-03 10:00:00,51.5,51.2,29.89,North,355,0.0,0.0,99,0.00,,,0.18,Wunderground v.1.15,2013-12-03 15:00:00,
2013-12-03 10:09:00,51.5,51.2,29.90,North,355,0.0,0.0,99,0.00,,,0.18,Wunderground v.1.15,2013-12-03 15:09:00,
2013-12-03 10:19:00,51.6,51.6,29.90,North,355,0.0,0.0,100,0.00,,,0.18,Wunderground v.1.15,2013-12-03 15:19:00,
2013-12-03 10:30:00,51.8,51.8,29.90,North,355,0.0,0.0,100,0.00,,,0.18,Wunderground v.1.15,2013-12-03 15:30:00,
2013-12-03 10:40:00,51.9,51.6,29.90,North,355,0.0,0.0,99,0.00,,,0.18,Wunderground v.1.15,2013-12-03 15:40:00,
2013-12-03 10:50:00,52.0,51.7,29.90,North,355,0.0,0.0,99,0.00,,,0.18,Wunderground v.1.15,2013-12-03 15:50:00,
2013-12-03 10:59:00,52.1,51.8,29.90,North,355,0.0,0.0,99,0.00,,,0.18,Wunderground v.1.15,2013-12-03 15:59:00,
2013-12-03 11:09:00,52.1,52.1,29.90,North,355,0.0,0.0,100,0.00,,,0.18,Wunderground v.1.15,2013-12-03 16:09:00,
2013-12-03 11:19:00,52.3,52.3,29.90,North,355,0.0,0.0,100,0.00,,,0.18,Wunderground v.1.15,2013-12-03 16:19:00,
2013-12-03 11:25:00,52.3,52.3,29.90,North,355,0.0,0.0,100,0.00,,,0.18,Wunderground v.1.15,2013-12-03 16:25:00,
2013-12-03 11:30:00,52.4,52.4,29.90,North,355,0.0,0.0,100,0.00,,,0.18,Wunderground v.1.15,2013-12-03 16:30:00,
2013-12-03 11:40:00,52.4,52.4,29.89,North,355,0.0,0.0,100,0.00,,,0.18,Wunderground v.1.15,2013-12-03 16:40:00,
2013-12-03 11:49:00,52.3,52.3,29.89,North,355,0.0,0.0,100,0.00,,,0.18,Wunderground v.1.15,2013-12-03 16:49:00,
2013-12-03 11:59:00,52.4,52.4,29.89,North,355,0.0,0.0,100,0.00,,,0.18,Wunderground v.1.15,2013-12-03 16:59:00,
2013-12-03 12:09:00,52.5,52.2,29.88,North,355,0.0,0.0,99,0.00,,,0.18,Wunderground v.1.15,2013-12-03 17:09:00,
2013-12-03 12:19:00,52.6,52.3,29.88,North,355,0.0,0.0,99,0.00,,,0.18,Wunderground v.1.15,2013-12-03 17:19:00,
2013-12-03 12:25:00,52.6,52.3,29.88,North,355,0.0,0.0,99,0.00,,,0.18,Wunderground v.1.15,2013-12-03 17:25:00,
2013-12-03 12:30:00,52.7,52.4,29.88,North,355,0.0,0.0,99,0.00,,,0.18,Wunderground v.1.15,2013-12-03 17:30:00,
2013-12-03 12:40:00,52.6,52.3,29.87,North,355,0.0,0.0,99,0.00,,,0.18,Wunderground v.1.15,2013-12-03 17:40:00,
2013-12-03 12:50:00,52.6,52.3,29.86,North,355,0.0,0.0,99,0.00,,,0.18,Wunderground v.1.15,2013-12-03 17:50:00,
2013-12-03 12:59:00,52.7,52.4,29.86,North,355,0.0,0.0,99,0.00,,,0.18,Wunderground v.1.15,2013-12-03 17:59:00,
2013-12-03 13:09:00,52.6,52.3,29.86,North,355,0.0,0.0,99,0.00,,,0.18,Wunderground v.1.15,2013-12-03 18:09:00,
2013-12-03 13:15:00,52.6,52.3,29.86,North,355,0.0,0.0,99,0.00,,,0.18,Wunderground v.1.15,2013-12-03 18:15:00,
2013-12-03 13:20:00,52.7,52.4,29.86,North,355,0.0,0.0,99,0.00,,,0.18,Wunderground v.1.15,2013-12-03 18:20:00,
2013-12-03 13:30:00,52.7,52.4,29.86,North,355,0.0,0.0,99,0.00,,,0.18,Wunderground v.1.15,2013-12-03 18:30:00,
2013-12-03 13:40:00,52.8,52.8,29.85,North,355,0.0,0.0,100,0.00,,,0.18,Wunderground v.1.15,2013-12-03 18:40:00,
2013-12-03 13:50:00,52.8,52.5,29.85,North,355,0.0,0.0,99,0.00,,,0.18,Wunderground v.1.15,2013-12-03 18:50:00,
2013-12-03 13:59:00,52.8,52.8,29.85,North,355,0.0,0.0,100,0.00,,,0.18,Wunderground v.1.15,2013-12-03 18:59:00,
2013-12-03 14:09:00,52.8,52.5,29.85,North,355,0.0,0.0,99,0.00,,,0.18,Wunderground v.1.15,2013-12-03 19:09:00,
2013-12-03 14:19:00,52.8,52.5,29.85,North,355,0.0,0.0,99,0.00,,,0.18,Wunderground v.1.15,2013-12-03 19:19:00,
2013-12-03 14:25:00,52.8,52.8,29.85,North,355,0.0,0.0,100,0.00,,,0.18,Wunderground v.1.15,2013-12-03 19:25:00,
2013-12-03 14:34:00,52.8,52.8,29.85,North,355,0.0,0.0,100,0.00,,,0.18,Wunderground v.1.15,2013-12-03 19:34:00,
2013-12-03 14:40:00,52.9,52.9,29.85,North,355,0.0,0.0,100,0.00,,,0.18,Wunderground v.1.15,2013-12-03 19:40:00,
2013-12-03 14:50:00,53.0,53.0,29.84,North,355,0.0,0.0,100,0.00,,,0.18,Wunderground v.1.15,2013-12-03 19:50:00,
2013-12-03 14:59:00,53.0,53.0,29.84,North,355,0.0,0.0,100,0.00,,,0.18,Wunderground v.1.15,2013-12-03 19:59:00,
2013-12-03 15:09:00,53.0,52.7,29.84,North,355,0.0,0.0,99,0.00,,,0.18,Wunderground v.1.15,2013-12-03 20:09:00,
2013-12-03 15:15:00,53.0,52.7,29.84,North,355,0.0,0.0,99,0.00,,,0.18,Wunderground v.1.15,2013-12-03 20:15:00,
2013-12-03 15:20:00,52.9,52.6,29.84,North,355,0.0,0.0,99,0.00,,,0.18,Wunderground v.1.15,2013-12-03 20:20:00,
2013-12-03 15:30:00,52.8,52.5,29.84,North,355,0.0,0.0,99,0.00,,,0.18,Wunderground v.1.15,2013-12-03 20:30:00,
2013-12-03 15:39:00,52.9,52.6,29.84,North,355,0.0,0.0,99,0.00,,,0.18,Wunderground v.1.15,2013-12-03 20:39:00,
2013-12-03 15:49:00,52.8,52.5,29.84,North,355,0.0,0.0,99,0.00,,,0.18,Wunderground v.1.15,2013-12-03 20:49:00,
2013-12-03 16:00:00,52.8,52.5,29.84,North,355,0.0,0.0,99,0.00,,,0.18,Wunderground v.1.15,2013-12-03 21:00:00,
2013-12-03 16:10:00,52.7,52.4,29.85,North,355,0.0,0.0,99,0.00,,,0.18,Wunderground v.1.15,2013-12-03 21:10:00,
2013-12-03 16:20:00,52.7,52.4,29.85,North,355,0.0,0.0,99,0.00,,,0.18,Wunderground v.1.15,2013-12-03 21:20:00,
2013-12-03 16:30:00,52.7,52.4,29.85,North,355,0.0,0.0,99,0.00,,,0.18,Wunderground v.1.15,2013-12-03 21:30:00,
2013-12-03 16:39:00,52.6,52.3,29.85,North,355,0.0,0.0,99,0.00,,,0.18,Wunderground v.1.15,2013-12-03 21:39:00,
2013-12-03 16:45:00,52.6,52.3,29.85,North,355,0.0,0.0,99,0.00,,,0.18,Wunderground v.1.15,2013-12-03 21:45:00,
2013-12-03 16:50:00,52.6,52.3,29.85,North,355,0.0,0.0,99,0.00,,,0.18,Wunderground v.1.15,2013-12-03 21:50:00,
2013-12-03 17:00:00,52.6,52.3,29.85,North,355,0.0,0.0,99,0.21,,,0.20,Wunderground v.1.15,2013-12-03 22:00:00,
2013-12-03 17:10:00,52.5,52.2,29.86,North,355,0.0,0.0,99,0.06,,,0.21,Wunderground v.1.15,2013-12-03 22:10:00,
2013-12-03 17:19:00,52.4,52.1,29.86,North,355,0.0,0.0,99,0.00,,,0.21,Wunderground v.1.15,2013-12-03 22:19:00,
2013-12-03 17:29:00,52.4,52.1,29.86,North,355,0.0,0.0,99,0.00,,,0.21,Wunderground v.1.15,2013-12-03 22:29:00,
2013-12-03 17:39:00,52.4,52.1,29.87,North,355,0.0,0.0,99,0.00,,,0.22,Wunderground v.1.15,2013-12-03 22:39:00,
2013-12-03 17:49:00,52.4,52.1,29.87,North,355,0.0,0.0,99,0.00,,,0.22,Wunderground v.1.15,2013-12-03 22:49:00,
2013-12-03 17:55:00,52.4,52.1,29.87,North,355,0.0,0.0,99,0.00,,,0.22,Wunderground v.1.15,2013-12-03 22:55:00,
2013-12-03 18:05:00,52.4,52.1,29.88,North,355,0.0,0.0,99,0.00,,,0.22,Wunderground v.1.15,2013-12-03 23:05:00,
2013-12-03 18:10:00,52.3,52.0,29.88,North,355,0.0,0.0,99,0.00,,,0.23,Wunderground v.1.15,2013-12-03 23:10:00,
2013-12-03 18:20:00,52.3,52.0,29.89,North,355,0.0,0.0,99,0.07,,,0.23,Wunderground v.1.15,2013-12-03 23:20:00,
2013-12-03 18:30:00,52.3,52.0,29.89,North,355,0.0,0.0,99,0.06,,,0.24,Wunderground v.1.15,2013-12-03 23:30:00,
2013-12-03 18:39:00,52.3,52.0,29.89,North,355,0.0,0.0,99,0.05,,,0.24,Wunderground v.1.15,2013-12-03 23:39:00,
2013-12-03 18:45:00,52.3,52.0,29.89,North,355,0.0,0.0,99,0.00,,,0.24,Wunderground v.1.15,2013-12-03 23:45:00,
2013-12-03 18:50:00,52.3,52.0,29.89,North,355,0.0,0.0,99,0.00,,,0.24,Wunderground v.1.15,2013-12-03 23:50:00,
2013-12-03 19:00:00,52.4,52.1,29.89,North,355,0.0,0.0,99,0.00,,,0.24,Wunderground v.1.15,2013-12-04 00:00:00,
2013-12-03 19:10:00,52.4,52.1,29.89,North,355,0.0,0.0,99,0.00,,,0.24,Wunderground v.1.15,2013-12-04 00:10:00,
2013-12-03 19:15:00,52.4,52.1,29.89,North,355,0.0,0.0,99,0.00,,,0.24,Wunderground v.1.15,2013-12-04 00:15:00,
2013-12-03 19:20:00,52.3,52.0,29.90,North,355,0.0,0.0,99,0.00,,,0.24,Wunderground v.1.15,2013-12-04 00:20:00,
2013-12-03 19:30:00,52.3,52.0,29.90,North,355,0.0,0.0,99,0.00,,,0.24,Wunderground v.1.15,2013-12-04 00:30:00,
2013-12-03 19:40:00,52.4,52.1,29.89,North,355,0.0,0.0,99,0.00,,,0.24,Wunderground v.1.15,2013-12-04 00:40:00,
2013-12-03 19:49:00,52.3,52.0,29.89,North,355,0.0,0.0,99,0.00,,,0.24,Wunderground v.1.15,2013-12-04 00:49:00,
2013-12-03 19:59:00,52.4,52.1,29.89,North,355,0.0,0.0,99,0.00,,,0.24,Wunderground v.1.15,2013-12-04 00:59:00,
2013-12-03 20:09:00,52.4,52.1,29.89,North,355,0.0,0.0,99,0.00,,,0.24,Wunderground v.1.15,2013-12-04 01:09:00,
2013-12-03 20:19:00,52.4,52.1,29.89,North,355,0.0,0.0,99,0.00,,,0.24,Wunderground v.1.15,2013-12-04 01:19:00,
2013-12-03 20:29:00,52.4,52.1,29.89,North,355,0.0,0.0,99,0.00,,,0.24,Wunderground v.1.15,2013-12-04 01:29:00,
2013-12-03 20:39:00,52.5,52.2,29.89,North,355,0.0,0.0,99,0.00,,,0.24,Wunderground v.1.15,2013-12-04 01:39:00,
2013-12-03 20:50:00,52.4,52.1,29.90,North,355,0.0,0.0,99,0.00,,,0.24,Wunderground v.1.15,2013-12-04 01:50:00,
2013-12-03 20:55:00,52.4,52.1,29.90,North,355,0.0,0.0,99,0.00,,,0.24,Wunderground v.1.15,2013-12-04 01:55:00,
2013-12-03 21:05:00,52.5,52.2,29.91,North,355,0.0,0.0,99,0.00,,,0.24,Wunderground v.1.15,2013-12-04 02:05:00,
2013-12-03 21:10:00,52.4,52.1,29.91,North,355,0.0,0.0,99,0.00,,,0.24,Wunderground v.1.15,2013-12-04 02:10:00,
2013-12-03 21:20:00,52.5,52.2,29.90,North,355,0.0,0.0,99,0.00,,,0.24,Wunderground v.1.15,2013-12-04 02:20:00,
2013-12-03 21:29:00,52.4,52.1,29.90,North,355,0.0,0.0,99,0.00,,,0.24,Wunderground v.1.15,2013-12-04 02:29:00,
2013-12-03 21:39:00,52.3,52.0,29.90,North,355,0.0,0.0,99,0.00,,,0.24,Wunderground v.1.15,2013-12-04 02:39:00,
2013-12-03 21:49:00,52.4,52.1,29.90,North,355,0.0,0.0,99,0.00,,,0.24,Wunderground v.1.15,2013-12-04 02:49:00,
2013-12-03 21:59:00,52.4,52.1,29.90,North,355,0.0,0.0,99,0.00,,,0.24,Wunderground v.1.15,2013-12-04 02:59:00,
2013-12-03 22:09:00,52.5,52.2,29.91,North,355,0.0,0.0,99,0.00,,,0.24,Wunderground v.1.15,2013-12-04 03:09:00,
2013-12-03 22:19:00,52.5,52.2,29.91,North,355,0.0,0.0,99,0.00,,,0.24,Wunderground v.1.15,2013-12-04 03:19:00,
2013-12-03 22:29:00,52.5,52.2,29.91,North,355,0.0,0.0,99,0.00,,,0.24,Wunderground v.1.15,2013-12-04 03:29:00,
2013-12-03 22:39:00,52.5,52.2,29.91,North,355,0.0,0.0,99,0.00,,,0.24,Wunderground v.1.15,2013-12-04 03:39:00,
2013-12-03 22:44:00,52.5,52.2,29.91,North,355,0.0,0.0,99,0.00,,,0.24,Wunderground v.1.15,2013-12-04 03:44:00,
2013-12-03 22:49:00,52.6,52.3,29.92,North,355,0.0,0.0,99,0.00,,,0.24,Wunderground v.1.15,2013-12-04 03:49:00,
2013-12-03 22:59:00,52.6,52.3,29.92,North,355,0.0,0.0,99,0.00,,,0.24,Wunderground v.1.15,2013-12-04 03:59:00,
2013-12-03 23:09:00,52.7,52.4,29.92,North,355,0.0,0.0,99,0.00,,,0.24,Wunderground v.1.15,2013-12-04 04:09:00,
2013-12-03 23:19:00,52.8,52.5,29.92,North,355,0.0,0.0,99,0.00,,,0.24,Wunderground v.1.15,2013-12-04 04:19:00,
2013-12-03 23:25:00,52.7,52.4,29.92,North,355,0.0,0.0,99,0.00,,,0.24,Wunderground v.1.15,2013-12-04 04:25:00,
2013-12-03 23:30:00,52.7,52.4,29.92,North,355,0.0,0.0,99,0.00,,,0.24,Wunderground v.1.15,2013-12-04 04:30:00,
2013-12-03 23:40:00,52.8,52.5,29.92,North,355,0.0,0.0,99,0.00,,,0.24,Wunderground v.1.15,2013-12-04 04:40:00,
2013-12-03 23:50:00,52.8,52.5,29.92,North,355,0.0,0.0,99,0.00,,,0.24,Wunderground v.1.15,2013-12-04 04:50:00,